[[{"header":{"parameterUnit":"m.s-1","parameterCategory":2,"la1":30.2991,"la2":30.254,"lo1":-89.0895,"lo2":-89.0444,"dy":0.0017,"dx":0.0017,"nx":28,"ny":28,"refTime":"2024-10-18T09:00:00:Z","depth":"0","parameterNumber":2,"parameterNumberName":"U-component_of_CURRENTS"},"data":[0,0,0,0,0,0,0,0,0,0,0,0,0,0,0,0,0,0,0,0,0,0,0,0,0,0,0,0,0,0,0,0,0,0,0,0,0,0,0,0,0,0,0,0,0,0,0,0,0,0,0,0,0,0,0,0,0,0,0.3006,0.3007,0,0.3028,0.3028,0.3028,0.3013,0.3012,0.3012,0.3011,0.2988,0.2987,0.2987,0,0,0,0,0,0,0,0,0,0,0,0,0,0.2948,0.2948,0.3006,0.3007,0.3007,0.3028,0.3028,0.3028,0.3013,0.3012,0.3012,0.3011,0.2988,0.2987,0.2987,0,0,0,0,0,0,0,0,0,0,0,0,0,0.2968,0.2949,0.3006,0.3005,0.3005,0.3028,0.3028,0.3028,0.3013,0.3012,0.3012,0.3011,0.2988,0.2987,0.2987,0.2996,0,0,0.2986,0.2985,0,0,0,0,0,0,0,0,0.2967,0.297,0.3004,0.3005,0.3005,0.302,0.2999,0.3016,0.3013,0.3006,0.3011,0.3011,0.2997,0.2996,0.2997,0.2995,0.2994,0.2986,0.2985,0.2985,0.2985,0,0,0,0,0,0,0,0.2966,0.2969,0.3011,0.3005,0.3006,0.3002,0.3004,0.3002,0.3001,0.3007,0.3006,0.3015,0.2996,0.2997,0.2996,0.2993,0.2986,0.2985,0.2985,0.2985,0.3036,0.3037,0,0,0,0,0,0,0.2971,0.2968,0.3011,0.3012,0.2988,0.3004,0.3006,0.3013,0.3002,0.3001,0.3015,0.3014,0.2998,0.2997,0.2995,0.3034,0.2985,0.2985,0.2985,0.3034,0.3036,0.3038,0,0,0,0,0,0,0.297,0.2975,0.301,0.2993,0.2998,0.3006,0.3014,0.3014,0.3019,0.3009,0.3007,0.3021,0.2998,0.2996,0.3007,0.3032,0.2985,0.2984,0.3032,0.3035,0.3037,0.3093,0,0,0,0,0,0,0.2968,0.2974,0.2979,0.2994,0.2999,0.3031,0.3015,0.3015,0.3027,0.3025,0.3014,0.3011,0.2997,0.3008,0.3006,0.303,0.2984,0.303,0.3033,0.3036,0.3089,0.3097,0.3103,0,0,0,0,0,0.2966,0.2975,0.2979,0.2984,0.3007,0.3032,0.3035,0.3036,0.3028,0.3037,0.3033,0.3012,0.3026,0.3009,0.3007,0.3031,0.3029,0.3033,0.3036,0.3085,0.3095,0.3103,0,0,0,0,0,0,0.2946,0.2975,0.298,0.2995,0.3017,0.3031,0.304,0.3042,0.3047,0.3045,0.3027,0.3025,0.3048,0.3034,0.3015,0.3057,0.3026,0.3029,0.3064,0.3073,0.308,0.3088,0.2984,0,0,0,0,0,0.2948,0.2965,0.2991,0.3004,0.3018,0.3031,0.3041,0.3047,0.3055,0.3056,0.305,0.305,0.3062,0.3062,0.3068,0.3084,0.3094,0.3101,0.3109,0.3115,0.3122,0.3168,0.318,0.305,0.305,0.305,0,0,0.2943,0.2963,0.297,0.3002,0.3017,0.3042,0.3034,0.3058,0.3078,0.3053,0.3071,0.3075,0.3075,0.3099,0.3108,0.3088,0.3159,0.3119,0.3124,0.3128,0.3173,0.3186,0.3197,0.3052,0.3052,0.3051,0,0,0.2946,0.2963,0.298,0.3004,0.3038,0.3053,0.3063,0.3086,0.3096,0.3118,0.3114,0.3136,0.3137,0.3153,0.3158,0.321,0.32,0.321,0.3246,0.3291,0.3302,0.3312,0.3348,0.336,0.3208,0.3208,0.3209,0,0.2938,0.2966,0.2988,0.3015,0.3038,0.306,0.3086,0.3104,0.3127,0.3147,0.3129,0.3172,0.3167,0.3215,0.3232,0.3226,0.3246,0.321,0.3301,0.3311,0.332,0.3354,0.3367,0.3212,0.3211,0.3211,0.3211,0,0.2956,0.2982,0.2997,0.3039,0.3066,0.3095,0.313,0.3156,0.3169,0.319,0.3239,0.3243,0.3269,0.3276,0.3265,0.3333,0.3326,0.3309,0.3277,0.3336,0.3368,0.3381,0.3216,0.3215,0.3214,0.3213,0,0,0.2928,0.2996,0.3001,0.3023,0.3084,0.3102,0.3154,0.3206,0.324,0.3266,0.3315,0.3344,0.3354,0.3362,0.3363,0.3397,0.3477,0.338,0.3381,0.3413,0.3577,0.3572,0.3585,0.3476,0.3479,0.3481,0.3576,0,0.2936,0.298,0.3021,0.3063,0.3089,0.314,0.3187,0.3238,0.3276,0.3328,0.3363,0.3404,0.3386,0.3402,0.344,0.3472,0.3512,0.3452,0.3517,0.3519,0.3506,0.36,0.3515,0.3593,0.3588,0.359,0.3592,0,0.2937,0.297,0.3009,0.308,0.3098,0.3127,0.3205,0.325,0.3341,0.3378,0.3436,0.3463,0.3534,0.3498,0.3593,0.3557,0.3576,0.3591,0.3595,0.3579,0.3539,0.3532,0.3615,0.3565,0.3611,0.3609,0.3608,0,0.289,0.296,0.2987,0.3009,0.3092,0.3122,0.3169,0.3258,0.331,0.3408,0.3461,0.354,0.359,0.3633,0.3676,0.3641,0.3775,0.3726,0.3741,0.374,0.3674,0.3664,0.3713,0.3795,0.3795,0.3795,0.3795,0,0.2877,0.2897,0.2961,0.2972,0.3016,0.3085,0.3142,0.3212,0.3317,0.3387,0.3475,0.355,0.3627,0.3709,0.3722,0.3791,0.3818,0.3776,0.3778,0.3692,0.3682,0.3639,0.36,0.3798,0.3798,0.3797,0.3796,0,0.2818,0.2863,0.2893,0.2968,0.2991,0.3015,0.3117,0.3163,0.3279,0.3375,0.3414,0.3581,0.37,0.3774,0.3865,0.3859,0.3823,0.3919,0.3814,0.3802,0.3742,0.3709,0.3607,0.3477,0.3948,0.3949,0.3949,0,0.279,0.2799,0.2863,0.2878,0.2907,0.2956,0.3,0.3123,0.3187,0.3385,0.3437,0.3605,0.3716,0.388,0.3923,0.3984,0.3851,0.3912,0.3826,0.376,0.3725,0.3555,0.3437,0.3761,0.376,0.3759,0.3759,0,0.2736,0.2758,0.2781,0.2813,0.2844,0.2883,0.2958,0.3006,0.316,0.3261,0.3419,0.3528,0.3745,0.3809,0.3922,0.3934,0.3751,0.3896,0.3857,0.3622,0.341,0.3277,0.3673,0.3751,0.3752,0.3753,0.3753,0.3753,0.2688,0.2687,0.2716,0.2739,0.2771,0.2794,0.2794,0.2897,0.2985,0.3118,0.3304,0.3439,0.3658,0.3829,0.382,0.3807,0.3714,0.3714,0.3693,0.3536,0.3364,0.3749,0.3809,0.381,0.3811,0.3812,0.3813,0,0.2616,0.2624,0.2643,0.2652,0.2641,0.2695,0.2751,0.274,0.2792,0.2989,0.3112,0.3347,0.3475,0.3622,0.3741,0.3641,0.3424,0.3543,0.329,0.319,0.3587,0.3536,0.3503,0.3503,0.3503,0.3503,0.3503,0.3504,0.2579,0.2558,0.2566,0.2515,0.2518,0.2463,0.2465,0.2485,0.2594,0.2725,0.2873,0.3047,0.3427,0.3672,0.366,0.3556,0.3254,0.3135,0.306,0.3391,0.3404,0.3416,0.336,0.3291,0.3291,0.2529,0.2524,0.252]},{"header":{"parameterUnit":"m.s-1","parameterCategory":2,"la1":30.2991,"la2":30.254,"lo1":-89.0895,"lo2":-89.0444,"dy":0.0017,"dx":0.0017,"nx":28,"ny":28,"refTime":"2024-10-18T09:00:00:Z","depth":"0","parameterNumber":3,"parameterNumberName":"V-component_of_CURRENTS"},"data":[0,0,0,0,0,0,0,0,0,0,0,0,0,0,0,0,0,0,0,0,0,0,0,0,0,0,0,0,0,0,0,0,0,0,0,0,0,0,0,0,0,0,0,0,0,0,0,0,0,0,0,0,0,0,0,0,0,0,-0.0135,-0.0135,0,-0.0207,-0.0208,-0.0209,-0.0256,-0.0256,-0.0256,-0.0256,-0.0341,-0.0343,-0.0345,0,0,0,0,0,0,0,0,0,0,0,0,0,-0.0087,-0.0087,-0.0134,-0.0135,-0.0136,-0.0207,-0.0208,-0.0209,-0.0256,-0.0256,-0.0256,-0.0256,-0.034,-0.0342,-0.0345,0,0,0,0,0,0,0,0,0,0,0,0,0,-0.013,-0.0087,-0.0134,-0.0166,-0.017,-0.0206,-0.0208,-0.0209,-0.0255,-0.0256,-0.0256,-0.0256,-0.0339,-0.0342,-0.0345,-0.0362,0,0,-0.0355,-0.0357,0,0,0,0,0,0,0,0,-0.0127,-0.0132,-0.0161,-0.0164,-0.0168,-0.0221,-0.0222,-0.026,-0.0255,-0.0225,-0.0256,-0.0256,-0.03,-0.0307,-0.0322,-0.0366,-0.0369,-0.0355,-0.0357,-0.0359,-0.036,0,0,0,0,0,0,0,-0.0124,-0.0129,-0.0165,-0.0162,-0.0166,-0.0194,-0.02,-0.023,-0.0262,-0.0228,-0.0231,-0.0236,-0.0303,-0.0319,-0.0325,-0.037,-0.0355,-0.0358,-0.036,-0.0361,-0.0428,-0.0427,0,0,0,0,0,0,-0.0109,-0.0126,-0.0163,-0.0167,-0.0146,-0.0194,-0.0201,-0.0205,-0.0262,-0.027,-0.0235,-0.0238,-0.0314,-0.0321,-0.0328,-0.0333,-0.0359,-0.0362,-0.0364,-0.0428,-0.0428,-0.0427,0,0,0,0,0,0,-0.0107,-0.0111,-0.016,-0.0147,-0.0155,-0.0194,-0.0199,-0.0206,-0.0219,-0.0267,-0.0276,-0.0239,-0.0314,-0.0323,-0.0347,-0.0338,-0.0363,-0.0366,-0.0428,-0.0428,-0.0427,-0.0355,0,0,0,0,0,0,-0.0106,-0.011,-0.0107,-0.0146,-0.0155,-0.0171,-0.0199,-0.0208,-0.0221,-0.0225,-0.0274,-0.0282,-0.0315,-0.0342,-0.035,-0.0342,-0.0369,-0.0428,-0.0428,-0.0427,-0.0358,-0.0353,-0.0348,0,0,0,0,0,-0.0104,-0.0093,-0.0106,-0.011,-0.0149,-0.017,-0.0177,-0.0208,-0.0221,-0.0221,-0.0255,-0.028,-0.0346,-0.0344,-0.0354,-0.0347,-0.0428,-0.0428,-0.0428,-0.036,-0.0354,-0.0348,0,0,0,0,0,0,-0.0068,-0.0098,-0.0113,-0.0112,-0.0135,-0.0177,-0.0179,-0.0201,-0.0229,-0.023,-0.0278,-0.0288,-0.0307,-0.0337,-0.0334,-0.0366,-0.0392,-0.0393,-0.0337,-0.0331,-0.0327,-0.0304,-0.0371,0,0,0,0,0,-0.0058,-0.006,-0.0094,-0.0092,-0.01,-0.0139,-0.0151,-0.017,-0.02,-0.0213,-0.0248,-0.0284,-0.0315,-0.0329,-0.0362,-0.0377,-0.0407,-0.038,-0.0375,-0.0371,-0.036,-0.0402,-0.04,-0.0426,-0.0426,-0.0426,0,0,-0.0045,-0.006,-0.0062,-0.0085,-0.0106,-0.0106,-0.0146,-0.0156,-0.0157,-0.0217,-0.0228,-0.0268,-0.0315,-0.0333,-0.0344,-0.0356,-0.0378,-0.037,-0.0366,-0.0357,-0.0402,-0.0399,-0.0397,-0.0426,-0.0426,-0.0426,0,0,-0.0011,-0.003,-0.0019,-0.0033,-0.0055,-0.0078,-0.0076,-0.0113,-0.0129,-0.0148,-0.019,-0.022,-0.0269,-0.0298,-0.0321,-0.0308,-0.0352,-0.0322,-0.0276,-0.0318,-0.0316,-0.0314,-0.0341,-0.0342,-0.0317,-0.0317,-0.0317,0,0.0008,0.0016,-0.0018,-0.0009,-0.0011,-0.0058,-0.0042,-0.0067,-0.0106,-0.0113,-0.014,-0.0209,-0.0251,-0.0271,-0.0269,-0.0295,-0.0323,-0.0292,-0.031,-0.031,-0.0309,-0.0337,-0.034,-0.0314,-0.0314,-0.0314,-0.0315,0,0.0048,0.0055,0.0063,0.0058,0.0052,0.0057,0.0025,0.0015,-0.0013,-0.0043,-0.0072,-0.0135,-0.0173,-0.0197,-0.0231,-0.0247,-0.0267,-0.0299,-0.0321,-0.0302,-0.0333,-0.0337,-0.0309,-0.031,-0.0311,-0.0312,0,0,0.0094,0.0092,0.0096,0.0111,0.009,0.0094,0.0095,0.0082,0.0092,0.0034,0.0036,-0.0035,-0.0074,-0.0101,-0.0153,-0.0192,-0.0219,-0.0238,-0.0242,-0.0255,-0.03,-0.0312,-0.0317,-0.0256,-0.0256,-0.0257,-0.0319,0,0.0138,0.0177,0.0159,0.02,0.0219,0.0185,0.0194,0.0176,0.0145,0.0133,0.0058,0.0034,-0.0037,-0.0051,-0.0103,-0.0186,-0.0227,-0.0198,-0.0324,-0.0327,-0.0333,-0.0322,-0.0302,-0.0356,-0.0323,-0.0324,-0.0324,0,0.0189,0.0208,0.0254,0.0281,0.0287,0.0299,0.0313,0.0315,0.0278,0.0251,0.0204,0.0147,0.0087,0.002,-0.0112,-0.009,-0.0185,-0.0258,-0.0263,-0.03,-0.0346,-0.0372,-0.0365,-0.0549,-0.0331,-0.0331,-0.033,0,0.0248,0.0281,0.0323,0.0329,0.0344,0.036,0.0367,0.0351,0.0374,0.0326,0.0333,0.0238,0.0206,0.0072,-0.0077,-0.0096,-0.0223,-0.0271,-0.0371,-0.0373,-0.0393,-0.0395,-0.0569,-0.0367,-0.0367,-0.0367,-0.0367,0,0.0306,0.0343,0.0354,0.0376,0.0439,0.0423,0.0476,0.0466,0.0469,0.0509,0.04,0.0414,0.0217,0.0124,-0.0037,-0.0203,-0.0195,-0.0355,-0.0389,-0.0366,-0.0366,-0.0557,-0.0678,-0.037,-0.0369,-0.0369,-0.0368,0,0.0365,0.0369,0.0423,0.045,0.0467,0.0511,0.0561,0.0602,0.0583,0.0633,0.063,0.0553,0.043,0.0233,0.0027,-0.0131,-0.0416,-0.0368,-0.0318,-0.0346,-0.0615,-0.0732,-0.096,-0.1047,-0.0488,-0.0489,-0.0489,0,0.0397,0.043,0.0484,0.0527,0.054,0.0596,0.0646,0.0657,0.0712,0.073,0.0775,0.0682,0.0644,0.0338,0.0043,-0.0232,-0.0432,-0.0411,-0.0453,-0.0622,-0.0778,-0.0871,-0.0935,-0.0451,-0.0451,-0.0451,-0.0451,0,0.0463,0.0477,0.0522,0.0607,0.0666,0.0742,0.0813,0.0882,0.0909,0.0957,0.1016,0.0994,0.0711,0.0462,0.0074,-0.0142,-0.0553,-0.0423,-0.062,-0.0778,-0.0871,-0.0972,-0.0413,-0.0453,-0.0452,-0.0452,-0.0452,-0.0452,0.0513,0.0556,0.0613,0.0697,0.0773,0.0878,0.0951,0.1046,0.1158,0.1253,0.1221,0.1231,0.0846,0.0331,0.0011,-0.0553,-0.0581,-0.0719,-0.0848,-0.0927,-0.1014,-0.0448,-0.0516,-0.0516,-0.0516,-0.0516,-0.0517,0,0.0577,0.0623,0.0702,0.0798,0.0892,0.0919,0.1063,0.1148,0.1296,0.1405,0.1463,0.1309,0.0822,0.0298,-0.0445,-0.0872,-0.105,-0.1126,-0.1262,-0.1308,-0.0815,-0.0814,-0.0923,-0.0923,-0.0923,-0.0923,-0.0923,-0.0922,0.061,0.0692,0.0728,0.0882,0.0954,0.108,0.1166,0.1307,0.1425,0.156,0.1603,0.1605,0.1231,-0.0113,-0.1054,-0.13,-0.162,-0.1706,-0.1866,-0.1539,-0.151,-0.1483,-0.151,-0.1764,-0.1765,-0.2283,-0.2289,-0.2293]}],[{"header":{"parameterUnit":"m.s-1","parameterCategory":2,"la1":30.2991,"la2":30.254,"lo1":-89.0895,"lo2":-89.0444,"dy":0.0017,"dx":0.0017,"nx":28,"ny":28,"refTime":"2024-10-18T09:00:00:Z","depth":"2","parameterNumber":2,"parameterNumberName":"U-component_of_CURRENTS"},"data":[0,0,0,0,0,0,0,0,0,0,0,0,0,0,0,0,0,0,0,0,0,0,0,0,0,0,0,0,0,0,0,0,0,0,0,0,0,0,0,0,0,0,0,0,0,0,0,0,0,0,0,0,0,0,0,0,0,0,0.291,0.2911,0,0.2935,0.2935,0.2935,0.2928,0.2928,0.2928,0.2928,0.2916,0.2916,0.2916,0,0,0,0,0,0,0,0,0,0,0,0,0,0.2852,0.2853,0.291,0.2911,0.2911,0.2935,0.2935,0.2935,0.2928,0.2928,0.2928,0.2928,0.2916,0.2916,0.2916,0,0,0,0,0,0,0,0,0,0,0,0,0,0.2875,0.2853,0.291,0.2913,0.2914,0.2935,0.2935,0.2935,0.2929,0.2928,0.2928,0.2927,0.2916,0.2916,0.2916,0.2922,0,0,0.2915,0.2915,0,0,0,0,0,0,0,0,0.2873,0.2876,0.2912,0.2913,0.2914,0.2931,0.291,0.293,0.2929,0.292,0.2928,0.2927,0.292,0.2919,0.2921,0.2921,0.2921,0.2915,0.2915,0.2915,0.2915,0,0,0,0,0,0,0,0.2872,0.2875,0.2917,0.2913,0.2914,0.2911,0.2914,0.2914,0.2919,0.2921,0.2921,0.2928,0.2919,0.2921,0.2921,0.2921,0.2915,0.2915,0.2915,0.2915,0.2973,0.2975,0,0,0,0,0,0,0.2875,0.2874,0.2916,0.2918,0.2895,0.2913,0.2916,0.2923,0.2919,0.292,0.2928,0.2928,0.2922,0.2921,0.292,0.2965,0.2915,0.2915,0.2915,0.2972,0.2974,0.2975,0,0,0,0,0,0,0.2874,0.2879,0.2915,0.2899,0.2903,0.2915,0.2923,0.2924,0.2935,0.2926,0.2925,0.294,0.2921,0.292,0.2936,0.2963,0.2915,0.2915,0.297,0.2972,0.2974,0.3031,0,0,0,0,0,0,0.2872,0.2878,0.2886,0.2899,0.2905,0.2938,0.2924,0.2925,0.2941,0.2941,0.2936,0.2934,0.2921,0.2937,0.2936,0.2962,0.2915,0.2968,0.2971,0.2974,0.3027,0.3035,0.3042,0,0,0,0,0,0.287,0.2881,0.2886,0.2891,0.2914,0.2939,0.2942,0.2946,0.2942,0.2953,0.2954,0.2934,0.2956,0.2938,0.2937,0.2963,0.2966,0.297,0.2973,0.3024,0.3033,0.3041,0,0,0,0,0,0,0.2856,0.2882,0.2888,0.2905,0.2927,0.2939,0.2951,0.2955,0.2964,0.2965,0.2951,0.295,0.2977,0.2964,0.2945,0.2991,0.296,0.2964,0.2998,0.3007,0.3015,0.3022,0.2915,0,0,0,0,0,0.2859,0.2876,0.29,0.2915,0.2929,0.2943,0.2954,0.2961,0.2972,0.2976,0.2973,0.2977,0.2991,0.2994,0.3001,0.302,0.3028,0.3039,0.3047,0.3053,0.306,0.3104,0.3116,0.2987,0.2987,0.2987,0,0,0.2856,0.2875,0.2883,0.2915,0.293,0.2954,0.2948,0.2974,0.2995,0.2973,0.2997,0.3003,0.3004,0.3031,0.3042,0.3023,0.3096,0.3058,0.3063,0.3067,0.3109,0.3121,0.3133,0.299,0.2989,0.2989,0,0,0.2863,0.2881,0.2899,0.2922,0.2956,0.2969,0.2981,0.3004,0.3017,0.3043,0.3041,0.3066,0.3072,0.3087,0.3093,0.3146,0.3137,0.3149,0.3187,0.3229,0.324,0.3249,0.3283,0.3295,0.3148,0.3148,0.3148,0,0.2859,0.2886,0.2907,0.2934,0.2956,0.2978,0.3004,0.3024,0.3049,0.3071,0.3057,0.3104,0.3102,0.3149,0.3168,0.3163,0.3182,0.315,0.3239,0.3248,0.3257,0.3289,0.3301,0.3151,0.3151,0.3151,0.315,0,0.2878,0.2905,0.2921,0.2961,0.2987,0.3017,0.3051,0.3079,0.3096,0.3117,0.317,0.3176,0.3204,0.3213,0.3203,0.3271,0.3264,0.3246,0.3214,0.3273,0.3303,0.3315,0.3156,0.3155,0.3154,0.3153,0,0,0.2856,0.2921,0.2926,0.2948,0.3007,0.3025,0.3077,0.3129,0.3164,0.3195,0.3245,0.3277,0.329,0.3299,0.3301,0.3334,0.3412,0.3319,0.3319,0.3348,0.3508,0.3492,0.3503,0.3412,0.3414,0.3416,0.3505,0,0.2866,0.291,0.2948,0.2991,0.3016,0.3065,0.3112,0.3163,0.3203,0.3256,0.3293,0.3336,0.3321,0.3341,0.3378,0.3408,0.3446,0.3389,0.3449,0.3451,0.3427,0.3517,0.3232,0.3288,0.3517,0.3519,0.352,0,0.287,0.2901,0.2941,0.3009,0.3027,0.3057,0.3134,0.318,0.327,0.3308,0.3368,0.3396,0.3467,0.3434,0.3525,0.3492,0.3509,0.3523,0.3526,0.35,0.3458,0.3265,0.3301,0.354,0.3539,0.3537,0.3536,0,0.2826,0.2894,0.2923,0.2945,0.3025,0.3056,0.3103,0.3191,0.3243,0.3342,0.3394,0.3473,0.3523,0.3565,0.3606,0.3573,0.3699,0.3652,0.3655,0.3653,0.3416,0.339,0.3718,0.3718,0.3718,0.3717,0.3717,0,0.2816,0.2837,0.2901,0.2913,0.2959,0.3025,0.3084,0.3154,0.3257,0.3325,0.3413,0.3483,0.3561,0.3637,0.3649,0.3708,0.374,0.3689,0.3688,0.343,0.3405,0.3619,0.3607,0.3721,0.372,0.3719,0.3719,0,0.2762,0.2806,0.2838,0.2912,0.2936,0.2963,0.3066,0.3111,0.3225,0.3318,0.3358,0.3516,0.3626,0.3697,0.3782,0.3771,0.3815,0.382,0.3517,0.3481,0.3725,0.3714,0.3834,0.3834,0.3834,0.3835,0.3835,0,0.2737,0.2747,0.2813,0.2829,0.286,0.2912,0.2956,0.3077,0.3137,0.3327,0.3376,0.3534,0.3629,0.3777,0.3788,0.3835,0.386,0.3586,0.3475,0.3756,0.3743,0.3732,0.3721,0.3175,0.317,0.3166,0.3162,0,0.2688,0.2711,0.2735,0.2769,0.2802,0.2841,0.2916,0.296,0.3109,0.3203,0.3345,0.344,0.3614,0.3558,0.3646,0.3622,0.3557,0.3506,0.388,0.3208,0.3148,0.3131,0.3139,0.3125,0.3129,0.3131,0.3133,0.3135,0.2644,0.2644,0.2675,0.27,0.2733,0.2753,0.2754,0.2844,0.2921,0.3021,0.3198,0.3243,0.3325,0.3332,0.3263,0.3214,0.3451,0.3273,0.328,0.3293,0.3219,0.3164,0.313,0.3134,0.3137,0.314,0.3142,0,0.2575,0.2586,0.2606,0.2617,0.2603,0.2662,0.2711,0.2679,0.2711,0.2837,0.2925,0.2755,0.2763,0.2828,0.272,0.2767,0.2675,0.2635,0.2466,0.251,0.2547,0.2426,0.2132,0.2128,0.2124,0.2121,0,0,0.254,0.252,0.2527,0.2476,0.2484,0.2423,0.2421,0.24,0.2445,0.2422,0.2425,0.2635,0.2768,0.2397,0.2384,0.2231,0.2334,0.2148,0.2971,0.2816,0.2848,0.2948,0.2819,0,0,0,0,0]},{"header":{"parameterUnit":"m.s-1","parameterCategory":2,"la1":30.2991,"la2":30.254,"lo1":-89.0895,"lo2":-89.0444,"dy":0.0017,"dx":0.0017,"nx":28,"ny":28,"refTime":"2024-10-18T09:00:00:Z","depth":"2","parameterNumber":3,"parameterNumberName":"V-component_of_CURRENTS"},"data":[0,0,0,0,0,0,0,0,0,0,0,0,0,0,0,0,0,0,0,0,0,0,0,0,0,0,0,0,0,0,0,0,0,0,0,0,0,0,0,0,0,0,0,0,0,0,0,0,0,0,0,0,0,0,0,0,0,0,-0.0042,-0.0043,0,-0.0113,-0.0114,-0.0115,-0.0163,-0.0163,-0.0163,-0.0163,-0.0246,-0.0248,-0.025,0,0,0,0,0,0,0,0,0,0,0,0,0,0.0005,0.0004,-0.0042,-0.0043,-0.0043,-0.0113,-0.0114,-0.0115,-0.0163,-0.0163,-0.0163,-0.0163,-0.0245,-0.0247,-0.025,0,0,0,0,0,0,0,0,0,0,0,0,0,-0.0037,0.0004,-0.0042,-0.0074,-0.0078,-0.0112,-0.0114,-0.0115,-0.0162,-0.0163,-0.0163,-0.0163,-0.0244,-0.0247,-0.025,-0.0264,0,0,-0.026,-0.0261,0,0,0,0,0,0,0,0,-0.0035,-0.0039,-0.0069,-0.0072,-0.0076,-0.0128,-0.0128,-0.0165,-0.0162,-0.0132,-0.0163,-0.0163,-0.0206,-0.0212,-0.0227,-0.0267,-0.0271,-0.026,-0.0262,-0.0263,-0.0264,0,0,0,0,0,0,0,-0.0032,-0.0037,-0.0072,-0.007,-0.0074,-0.0101,-0.0107,-0.0135,-0.0168,-0.0135,-0.0138,-0.0143,-0.0208,-0.0224,-0.0229,-0.0272,-0.026,-0.0262,-0.0264,-0.0266,-0.0327,-0.0327,0,0,0,0,0,0,-0.0017,-0.0033,-0.007,-0.0074,-0.0054,-0.0102,-0.0109,-0.0112,-0.0168,-0.0176,-0.0143,-0.0145,-0.0219,-0.0226,-0.0233,-0.0238,-0.0263,-0.0266,-0.0268,-0.0328,-0.0327,-0.0327,0,0,0,0,0,0,-0.0016,-0.0019,-0.0067,-0.0054,-0.0062,-0.0102,-0.0106,-0.0113,-0.0127,-0.0173,-0.0182,-0.0148,-0.0219,-0.0228,-0.0251,-0.0242,-0.0267,-0.027,-0.0328,-0.0328,-0.0327,-0.0258,0,0,0,0,0,0,-0.0014,-0.0018,-0.0015,-0.0053,-0.0062,-0.0077,-0.0106,-0.0115,-0.0129,-0.0133,-0.0181,-0.0189,-0.022,-0.0246,-0.0254,-0.0247,-0.0272,-0.0328,-0.0328,-0.0327,-0.026,-0.0255,-0.0251,0,0,0,0,0,-0.0012,-0.0002,-0.0015,-0.0019,-0.0057,-0.0077,-0.0084,-0.0115,-0.0129,-0.0129,-0.0162,-0.0187,-0.025,-0.0248,-0.0258,-0.0251,-0.0328,-0.0328,-0.0327,-0.0262,-0.0256,-0.0251,0,0,0,0,0,0,0.0022,-0.0007,-0.0022,-0.0021,-0.0043,-0.0084,-0.0086,-0.0109,-0.0136,-0.0138,-0.0185,-0.0195,-0.0213,-0.0242,-0.0239,-0.0269,-0.0294,-0.0295,-0.0241,-0.0236,-0.0231,-0.0209,-0.0275,0,0,0,0,0,0.0031,0.0029,-0.0003,-0.0002,-0.001,-0.0047,-0.0059,-0.0079,-0.0108,-0.0121,-0.0155,-0.0191,-0.0219,-0.0234,-0.0265,-0.0278,-0.0308,-0.0282,-0.0277,-0.0272,-0.0261,-0.0303,-0.0301,-0.0326,-0.0326,-0.0326,0,0,0.0044,0.0029,0.0027,0.0005,-0.0015,-0.0015,-0.0055,-0.0066,-0.0067,-0.0125,-0.0136,-0.0175,-0.022,-0.0236,-0.0247,-0.0258,-0.028,-0.0272,-0.0268,-0.0259,-0.0302,-0.03,-0.0298,-0.0326,-0.0326,-0.0326,0,0,0.0076,0.0057,0.0068,0.0055,0.0033,0.0011,0.0012,-0.0024,-0.004,-0.0059,-0.0099,-0.0129,-0.0175,-0.0203,-0.0223,-0.0211,-0.0255,-0.0224,-0.018,-0.0221,-0.0219,-0.0218,-0.0246,-0.0248,-0.022,-0.022,-0.022,0,0.0094,0.0102,0.0069,0.0078,0.0076,0.0029,0.0046,0.0022,-0.0017,-0.0024,-0.0051,-0.0118,-0.0158,-0.0175,-0.0173,-0.0198,-0.0226,-0.0196,-0.0213,-0.0213,-0.0213,-0.0242,-0.0245,-0.0217,-0.0217,-0.0217,-0.0218,0,0.0133,0.014,0.0147,0.0144,0.0138,0.0142,0.0112,0.0102,0.0073,0.0044,0.0016,-0.0045,-0.0082,-0.0104,-0.0136,-0.0151,-0.0173,-0.0203,-0.0224,-0.0206,-0.0239,-0.0243,-0.0212,-0.0213,-0.0214,-0.0215,0,0,0.0176,0.0175,0.0179,0.0194,0.0174,0.0178,0.018,0.0169,0.0178,0.012,0.0122,0.0055,0.0015,-0.001,-0.006,-0.0098,-0.0126,-0.0144,-0.0148,-0.0163,-0.0208,-0.0223,-0.023,-0.0161,-0.0162,-0.0162,-0.0229,0,0.0218,0.0256,0.0241,0.028,0.03,0.0267,0.0277,0.026,0.023,0.0217,0.0145,0.0121,0.0053,0.0037,-0.0013,-0.0094,-0.0134,-0.0104,-0.023,-0.0234,-0.0243,-0.0235,-0.0201,-0.0258,-0.0233,-0.0234,-0.0235,0,0.0266,0.0286,0.0331,0.0359,0.0365,0.0376,0.0391,0.0394,0.0359,0.0331,0.0285,0.0229,0.0171,0.0105,-0.0024,-0.0002,-0.0096,-0.0167,-0.0172,-0.0212,-0.0257,-0.0275,-0.0267,-0.0242,-0.0242,-0.0241,-0.0241,0,0.0322,0.0355,0.0396,0.0402,0.0419,0.0434,0.0442,0.0427,0.045,0.0403,0.0407,0.0315,0.0283,0.0152,0.0006,-0.0011,-0.0138,-0.0183,-0.0285,-0.0287,-0.0295,-0.0297,-0.0277,-0.0277,-0.0277,-0.0277,-0.0276,0,0.0377,0.0412,0.0424,0.0446,0.0507,0.0494,0.0544,0.0535,0.0539,0.0577,0.0472,0.0482,0.0292,0.0199,0.0043,-0.0123,-0.0113,-0.027,-0.0305,-0.027,-0.0269,-0.0286,-0.0286,-0.0279,-0.0279,-0.0278,-0.0278,0,0.0431,0.0435,0.0489,0.0516,0.0533,0.0575,0.0625,0.0665,0.0647,0.0695,0.069,0.0613,0.0489,0.0298,0.0096,-0.0057,-0.0226,-0.0291,-0.023,-0.0256,-0.0358,-0.0354,-0.0412,-0.0413,-0.0414,-0.0415,-0.0416,0,0.046,0.0492,0.0546,0.0586,0.0599,0.0654,0.0703,0.0716,0.077,0.0785,0.0827,0.0731,0.0686,0.0384,0.01,-0.0169,-0.0216,-0.0329,-0.0363,-0.0344,-0.0372,-0.0367,-0.0361,-0.0347,-0.0347,-0.0347,-0.0347,0,0.0521,0.0535,0.0578,0.0661,0.0718,0.0793,0.0863,0.0928,0.0956,0.0999,0.1047,0.1018,0.074,0.0485,0.0107,-0.0082,-0.0286,-0.0339,-0.0335,-0.0315,-0.0288,-0.0314,-0.031,-0.0348,-0.0348,-0.0347,-0.0347,-0.0347,0.0567,0.0608,0.0663,0.0745,0.0819,0.0921,0.0992,0.108,0.1183,0.1255,0.1223,0.1177,0.088,0.0412,0.0083,-0.0281,-0.0272,-0.0405,-0.0403,-0.0401,-0.0379,-0.0355,-0.0422,-0.0423,-0.0423,-0.0423,-0.0424,0,0.0626,0.0669,0.0746,0.084,0.093,0.0959,0.1097,0.117,0.1301,0.136,0.1395,0.1125,0.084,0.0483,-0.0042,-0.0352,-0.0381,-0.046,-0.042,-0.0417,-0.0415,-0.0393,-0.0441,-0.0442,-0.0442,-0.0443,0,0,0.0656,0.0734,0.0769,0.0916,0.0987,0.1109,0.1191,0.1304,0.1377,0.1436,0.1417,0.1369,0.0951,0.0575,0.0156,-0.0146,-0.022,-0.0214,-0.0166,-0.0068,-0.0063,-0.0349,-0.0307,0,0,0,0,0]}],[{"header":{"parameterUnit":"m.s-1","parameterCategory":2,"la1":30.2991,"la2":30.254,"lo1":-89.0895,"lo2":-89.0444,"dy":0.0017,"dx":0.0017,"nx":28,"ny":28,"refTime":"2024-10-18T09:00:00:Z","depth":"4","parameterNumber":2,"parameterNumberName":"U-component_of_CURRENTS"},"data":[0,0,0,0,0,0,0,0,0,0,0,0,0,0,0,0,0,0,0,0,0,0,0,0,0,0,0,0,0,0,0,0,0,0,0,0,0,0,0,0,0,0,0,0,0,0,0,0,0,0,0,0,0,0,0,0,0,0,0.1937,0.1938,0,0.2008,0.2009,0.2009,0.2072,0.2073,0.2074,0.2075,0.2154,0.2155,0.2157,0,0,0,0,0,0,0,0,0,0,0,0,0,0.1839,0.1841,0.1937,0.1938,0.1939,0.2008,0.2009,0.201,0.2072,0.2073,0.2074,0.2075,0.2154,0.2155,0.2157,0,0,0,0,0,0,0,0,0,0,0,0,0,0.1891,0.1841,0.1936,0.198,0.1984,0.2008,0.2009,0.201,0.2072,0.2073,0.2074,0.2076,0.2153,0.2155,0.2157,0.2142,0,0,0.2163,0.2164,0,0,0,0,0,0,0,0,0.1888,0.1895,0.1972,0.1977,0.1982,0.2034,0.2004,0.2055,0.2071,0.2037,0.2075,0.2076,0.2115,0.212,0.2128,0.2146,0.2149,0.2163,0.2164,0.2165,0.2166,0,0,0,0,0,0,0,0.1885,0.1892,0.1963,0.1973,0.1979,0.199,0.1999,0.2014,0.2066,0.204,0.2045,0.2055,0.2118,0.2126,0.213,0.2151,0.2163,0.2165,0.2166,0.2167,0.2287,0.2289,0,0,0,0,0,0,0.1879,0.1889,0.1961,0.1965,0.194,0.1991,0.2001,0.2015,0.2066,0.2076,0.2054,0.2058,0.2122,0.2128,0.2133,0.2232,0.2165,0.2167,0.2168,0.2285,0.2288,0.229,0,0,0,0,0,0,0.1877,0.1885,0.1958,0.193,0.194,0.1992,0.2006,0.2015,0.2067,0.2077,0.2087,0.2102,0.2123,0.2131,0.2187,0.2231,0.2168,0.2169,0.2283,0.2286,0.2289,0.2356,0,0,0,0,0,0,0.1874,0.1884,0.1911,0.193,0.1942,0.2,0.2006,0.2016,0.207,0.2077,0.212,0.2127,0.2125,0.2184,0.2189,0.2233,0.2171,0.228,0.2284,0.2288,0.2352,0.2361,0.237,0,0,0,0,0,0.187,0.1894,0.1912,0.1922,0.1971,0.2001,0.2009,0.2048,0.2071,0.2099,0.2134,0.2128,0.2212,0.2188,0.2193,0.2238,0.2278,0.2283,0.2287,0.2348,0.236,0.237,0,0,0,0,0,0,0.1867,0.1903,0.1923,0.1959,0.1993,0.2013,0.2049,0.2071,0.212,0.2142,0.2149,0.2158,0.2225,0.2222,0.2195,0.2285,0.2246,0.2252,0.229,0.2301,0.231,0.2311,0.2173,0,0,0,0,0,0.1878,0.1911,0.194,0.1975,0.1996,0.2031,0.2057,0.2084,0.2118,0.2144,0.2173,0.2208,0.224,0.2265,0.2289,0.2334,0.2336,0.2369,0.2378,0.2385,0.2391,0.2431,0.2444,0.2305,0.2305,0.2305,0,0,0.1887,0.1913,0.1934,0.1979,0.2011,0.2043,0.2051,0.2104,0.2142,0.2142,0.2218,0.2243,0.226,0.2315,0.2345,0.2324,0.2429,0.2391,0.2397,0.2399,0.2437,0.2451,0.2463,0.2308,0.2307,0.2307,0,0,0.1906,0.1948,0.1977,0.2009,0.2065,0.2083,0.2108,0.2154,0.2195,0.2255,0.2272,0.2326,0.2372,0.2394,0.2408,0.2482,0.2476,0.2498,0.2546,0.2586,0.2597,0.2607,0.2634,0.2646,0.2502,0.2503,0.2503,0,0.192,0.1959,0.1992,0.2026,0.2061,0.2105,0.2143,0.2182,0.2245,0.2283,0.2294,0.2388,0.2407,0.2469,0.25,0.2502,0.2521,0.2501,0.2597,0.2607,0.2616,0.2641,0.2653,0.2506,0.2506,0.2505,0.2505,0,0.1945,0.1994,0.2018,0.2076,0.2115,0.2161,0.2209,0.2266,0.2319,0.2355,0.2447,0.2476,0.2531,0.2551,0.255,0.2631,0.2622,0.2603,0.2565,0.2634,0.2656,0.2668,0.2512,0.251,0.2509,0.2508,0,0,0.1927,0.2018,0.2032,0.2069,0.215,0.2177,0.2255,0.2326,0.2383,0.2455,0.2528,0.2594,0.2625,0.2643,0.2658,0.2695,0.278,0.2687,0.2687,0.2708,0.2872,0.2705,0.2701,0.2783,0.2785,0.2787,0.2863,0,0.1943,0.2008,0.2056,0.2129,0.2165,0.2237,0.2301,0.2376,0.2444,0.2525,0.2583,0.2657,0.2655,0.2699,0.2739,0.2774,0.2813,0.2761,0.2807,0.2808,0.2647,0.271,0.2795,0.2871,0.2874,0.2876,0.2877,0,0.1943,0.1991,0.2063,0.216,0.2186,0.2241,0.2352,0.2417,0.2532,0.2591,0.2676,0.2722,0.2812,0.279,0.2886,0.2859,0.2878,0.2891,0.2893,0.2719,0.2663,0.2788,0.2898,0.2896,0.2895,0.2893,0.2892,0,0.189,0.1992,0.2052,0.2086,0.2199,0.226,0.2331,0.2445,0.2511,0.2644,0.2706,0.2804,0.2874,0.2918,0.2963,0.294,0.3049,0.3011,0.2877,0.2866,0.2962,0.295,0.3073,0.3072,0.3072,0.3072,0.3072,0,0.1863,0.1916,0.204,0.207,0.2153,0.2245,0.2343,0.243,0.2556,0.2629,0.2744,0.2803,0.2914,0.2984,0.2999,0.2975,0.3083,0.2894,0.2876,0.299,0.2981,0.297,0.2958,0.3075,0.3074,0.3074,0.3073,0,0.1789,0.1873,0.1947,0.2082,0.213,0.2192,0.2344,0.2403,0.2543,0.2641,0.2693,0.284,0.2923,0.3004,0.3084,0.3007,0.3007,0.2972,0.3106,0.3093,0.2788,0.2779,0.2815,0.2809,0.2805,0.2801,0.2798,0,0.1751,0.1785,0.1937,0.1984,0.2054,0.216,0.2229,0.2382,0.244,0.2631,0.2661,0.2807,0.2882,0.2858,0.2959,0.2977,0.2945,0.2924,0.2833,0.2784,0.2764,0.2761,0.2757,0.2791,0.279,0.2789,0.2788,0,0.1678,0.1753,0.1814,0.1913,0.1996,0.2068,0.2179,0.2203,0.2368,0.2519,0.2559,0.2601,0.2693,0.2744,0.279,0.2794,0.292,0.2877,0.2885,0.2799,0.2756,0.2739,0.2741,0.2772,0.2775,0.2776,0.2777,0,0.1629,0.1653,0.1746,0.1817,0.1914,0.1941,0.2012,0.2074,0.2148,0.235,0.2359,0.251,0.2656,0.2651,0.2691,0.2689,0.2639,0.254,0.2565,0.2583,0.2473,0.2382,0.2274,0,0,0,0,0,0.1565,0.1578,0.1639,0.1701,0.179,0.1842,0.1962,0.2032,0.2188,0.2156,0.2247,0.2314,0.2364,0.245,0.2402,0.2603,0.2661,0.2536,0.2561,0.2688,0.2705,0.2597,0,0,0,0,0,0,0.152,0.1574,0.1594,0.1588,0.1607,0.168,0.1745,0.185,0.1838,0.2006,0.2047,0.218,0.227,0.2368,0.2359,0.2386,0.2355,0.2641,0.2635,0.2678,0.2694,0.2708,0.2603,0,0,0,0,0]},{"header":{"parameterUnit":"m.s-1","parameterCategory":2,"la1":30.2991,"la2":30.254,"lo1":-89.0895,"lo2":-89.0444,"dy":0.0017,"dx":0.0017,"nx":28,"ny":28,"refTime":"2024-10-18T09:00:00:Z","depth":"4","parameterNumber":3,"parameterNumberName":"V-component_of_CURRENTS"},"data":[0,0,0,0,0,0,0,0,0,0,0,0,0,0,0,0,0,0,0,0,0,0,0,0,0,0,0,0,0,0,0,0,0,0,0,0,0,0,0,0,0,0,0,0,0,0,0,0,0,0,0,0,0,0,0,0,0,0,0.0062,0.0061,0,0.0011,0.001,0.0009,-0.0027,-0.0028,-0.0028,-0.0028,-0.0092,-0.0094,-0.0095,0,0,0,0,0,0,0,0,0,0,0,0,0,0.0095,0.0095,0.0062,0.0061,0.0061,0.0011,0.001,0.0009,-0.0027,-0.0028,-0.0028,-0.0028,-0.0092,-0.0094,-0.0096,0,0,0,0,0,0,0,0,0,0,0,0,0,0.0065,0.0095,0.0062,0.0037,0.0035,0.0011,0.001,0.0009,-0.0027,-0.0028,-0.0028,-0.0028,-0.0091,-0.0094,-0.0096,-0.0104,0,0,-0.0103,-0.0104,0,0,0,0,0,0,0,0,0.0067,0.0064,0.0042,0.0039,0.0036,-0.0001,-0.0002,-0.0029,-0.0027,-0.0005,-0.0028,-0.0028,-0.0062,-0.0067,-0.0077,-0.0107,-0.011,-0.0103,-0.0105,-0.0106,-0.0106,0,0,0,0,0,0,0,0.0069,0.0065,0.0041,0.0041,0.0038,0.0018,0.0013,-0.0008,-0.0032,-0.0007,-0.0009,-0.0013,-0.0064,-0.0075,-0.0079,-0.0111,-0.0103,-0.0105,-0.0107,-0.0107,-0.0154,-0.0154,0,0,0,0,0,0,0.008,0.0068,0.0042,0.0039,0.0052,0.0018,0.0012,0.001,-0.0032,-0.0038,-0.0013,-0.0015,-0.0071,-0.0076,-0.0082,-0.0084,-0.0105,-0.0108,-0.0109,-0.0154,-0.0154,-0.0154,0,0,0,0,0,0,0.008,0.0078,0.0044,0.0053,0.0047,0.0018,0.0015,0.0009,-0.0001,-0.0036,-0.0043,-0.0017,-0.0071,-0.0078,-0.0095,-0.0087,-0.0109,-0.0111,-0.0154,-0.0154,-0.0154,-0.0096,0,0,0,0,0,0,0.0082,0.0079,0.0082,0.0054,0.0047,0.0037,0.0015,0.0009,-0.0002,-0.0005,-0.0042,-0.0048,-0.0072,-0.0092,-0.0098,-0.0091,-0.0113,-0.0154,-0.0154,-0.0154,-0.0098,-0.0093,-0.009,0,0,0,0,0,0.0083,0.0092,0.0082,0.0079,0.0052,0.0038,0.0033,0.0009,-0.0002,-0.0002,-0.0027,-0.0047,-0.0095,-0.0093,-0.01,-0.0094,-0.0155,-0.0154,-0.0154,-0.0099,-0.0094,-0.009,0,0,0,0,0,0,0.0109,0.0088,0.0077,0.0079,0.0063,0.0032,0.0032,0.0014,-0.0006,-0.0008,-0.0044,-0.0052,-0.0065,-0.0088,-0.0086,-0.0108,-0.0128,-0.0129,-0.0085,-0.008,-0.0076,-0.0057,-0.0114,0,0,0,0,0,0.0116,0.0117,0.0092,0.0095,0.0089,0.0061,0.0052,0.0037,0.0015,0.0005,-0.0021,-0.0049,-0.007,-0.0081,-0.0104,-0.0114,-0.0141,-0.0116,-0.0112,-0.0108,-0.0098,-0.0136,-0.0134,-0.0153,-0.0153,-0.0153,0,0,0.0127,0.0116,0.0116,0.01,0.0086,0.0087,0.0055,0.0048,0.0049,0.0002,-0.0004,-0.0035,-0.007,-0.0081,-0.0089,-0.0098,-0.0117,-0.0107,-0.0104,-0.0096,-0.0135,-0.0134,-0.0132,-0.0153,-0.0153,-0.0153,0,0,0.0153,0.014,0.015,0.014,0.0124,0.0108,0.0109,0.0082,0.007,0.0057,0.0025,0.0002,-0.0033,-0.0053,-0.0069,-0.0057,-0.0096,-0.0068,-0.0031,-0.0067,-0.0066,-0.0065,-0.0096,-0.0098,-0.0064,-0.0064,-0.0064,0,0.0168,0.0175,0.0151,0.0159,0.0159,0.0123,0.0137,0.012,0.009,0.0085,0.0064,0.0014,-0.0018,-0.0029,-0.0026,-0.0047,-0.0074,-0.0044,-0.0061,-0.0061,-0.0061,-0.0093,-0.0096,-0.0061,-0.0062,-0.0062,-0.0062,0,0.0198,0.0206,0.0212,0.0212,0.0209,0.0214,0.0192,0.0186,0.0164,0.0143,0.0122,0.0074,0.0046,0.0029,0.0005,-0.0007,-0.0029,-0.0052,-0.007,-0.0055,-0.0091,-0.0095,-0.0057,-0.0058,-0.0059,-0.006,0,0,0.0229,0.0234,0.0237,0.0251,0.0238,0.0243,0.0248,0.0242,0.025,0.0206,0.0208,0.016,0.0127,0.0107,0.0068,0.0036,0.0008,-0.0002,-0.0006,-0.0026,-0.0071,-0.0078,-0.0084,-0.002,-0.0021,-0.0021,-0.0095,0,0.0262,0.0294,0.0285,0.032,0.0336,0.0314,0.0326,0.0315,0.0294,0.0284,0.0228,0.0212,0.0159,0.0147,0.0105,0.0036,-0.0001,0.003,-0.0087,-0.009,-0.0093,-0.0088,-0.0023,-0.0098,-0.0099,-0.01,-0.0101,0,0.0296,0.0314,0.0353,0.0381,0.0387,0.0401,0.0417,0.0424,0.0399,0.0377,0.0342,0.0297,0.025,0.0199,0.0087,0.0108,0.0027,-0.0034,-0.0039,-0.0067,-0.0106,-0.0118,-0.0109,-0.0109,-0.0108,-0.0107,-0.0107,0,0.0332,0.0364,0.0401,0.0407,0.0428,0.0446,0.046,0.0452,0.0472,0.0438,0.044,0.0365,0.0336,0.0227,0.0101,0.0092,-0.0028,-0.006,-0.0144,-0.0146,-0.0143,-0.0144,-0.0143,-0.0143,-0.0143,-0.0143,-0.0143,0,0.0366,0.0398,0.0422,0.044,0.0494,0.0493,0.054,0.0537,0.0544,0.0572,0.0493,0.049,0.0341,0.0257,0.0127,-0.0016,-0.0013,-0.0133,-0.0164,-0.0118,-0.0114,-0.0147,-0.0146,-0.0146,-0.0145,-0.0144,-0.0144,0,0.0395,0.0408,0.0456,0.0492,0.0511,0.055,0.0605,0.0638,0.0631,0.0664,0.0662,0.0589,0.0473,0.032,0.0144,0.003,-0.0113,-0.0169,-0.0096,-0.0123,-0.0215,-0.0211,-0.0268,-0.0268,-0.0269,-0.027,-0.027,0,0.0409,0.0436,0.0498,0.0535,0.0553,0.061,0.0654,0.0677,0.0715,0.0724,0.0745,0.0659,0.0583,0.0342,0.0163,-0.0081,-0.0125,-0.0204,-0.0222,-0.0202,-0.0227,-0.0222,-0.0217,-0.0271,-0.0271,-0.0272,-0.0272,0,0.0439,0.0461,0.05,0.0576,0.0633,0.0701,0.0763,0.0801,0.083,0.0831,0.0815,0.0691,0.0559,0.0356,0.0168,-0.0011,-0.0154,-0.0212,-0.0213,-0.023,-0.0208,-0.023,-0.0225,-0.0274,-0.0274,-0.0274,-0.0274,0,0.0462,0.0493,0.0545,0.0614,0.0692,0.0765,0.0796,0.084,0.0879,0.0888,0.0882,0.0733,0.0651,0.0392,0.022,0.0044,-0.0014,-0.0086,-0.0094,-0.0094,-0.003,0.0025,0.001,0,0,0,0,0,0.048,0.0515,0.058,0.0653,0.0732,0.0778,0.0861,0.0885,0.0918,0.0919,0.0903,0.0779,0.0529,0.0425,0.0248,0.0184,-0.0057,-0.0032,-0.0148,-0.0288,-0.0285,-0.0241,0,0,0,0,0,0,0.049,0.0548,0.0577,0.0674,0.0728,0.0818,0.0873,0.0898,0.0897,0.0904,0.0781,0.072,0.0482,0.0632,0.0241,0.0188,0.0085,-0.0145,-0.015,-0.0289,-0.0287,-0.0284,-0.0238,0,0,0,0,0]}]]